Tracking 19920 objects as of 13-Oct-2019
HD Live streaming from Space Station
objects crossing your sky now

FREGAT DEB

Track FREGAT DEB now!


NORAD ID: 43395
Int'l Code: 2011-023J
Perigee: 34,134.4 km
Apogee: 36,049.5 km
Inclination: 5.2 °
Period: 1,400.4 minutes
Semi major axis: 41462 km
RCS: Unknown
Launch date: June 7, 2011
Source: Commonwealth of Independent States (former USSR) (CIS)
Launch site: TYURATAM MISSILE AND SPACE COMPLEX (TTMTR)

Note: This is SATELLITE DEBRIS
aabbcc
Your satellite tracking list
Your tracking list is empty




NASA's NSSDC Master Catalog

Two Line Element Set (TLE):
1 43395U 11001J   19083.49494215 -.00000102  00000-0  00000+0 0  9999
2 43395   5.2298  60.4779 0230940 357.8854 144.3289  1.02828427 26860
Source of the keplerian elements: AFSPC